User: anonymous   Login
Location: Centerville
(32.8776°N, 96.6203°W)
Time: 23:21:13
(UTC+00:00)
Language:

Cosmos 1980 - Orbit

View from above orbital plane
View from above orbital plane
View from above satellite
View from above satellite

Ground track
Ground track

The orbit data is extracted from the following two-line orbital elements,

1 19649U 88102A   21269.61882556 -.00000230  00000-0 -94820-4 0  9993
2 19649  71.0033  26.3274 0002903 103.3877 256.7569 14.14738562695272
Epoch (UTC): 26 September 2021 14:51:06
Eccentricity: 0.0002903
inclination: 71.0033°
perigee height: 841 km
apogee height: 845 km
right ascension of ascending node: 26.3274°
argument of perigee: 103.3877°
revolutions per day: 14.14738562
mean anomaly at epoch: 256.7569°
orbit number at epoch: 69527

The dashed part of the orbit path shows where the satellite is in the earth's shadow,  

DLR